Location: La Madonnina
(44.6500°N, 10.9000°E)
Time: 11:56:03
(UTC+00:00)

Daily predictions for brighter satellites

Satellite Brightness Start Highest point End
(mag) Time Altitude Azimuth Time Altitude Azimuth Time Altitude Azimuth
Cosmos 1842 Rocket 3.8 19:11:27 10° N 19:15:54 59° E 19:20:19 10° SSE
Cosmos 2278 4.1 19:11:01 10° NNW 19:16:31 50° ENE 19:22:01 10° SE
Resurs 1-3 3.7 19:13:34 10° SSE 19:17:56 68° ENE 19:22:18 10° N
Cosmos 1633 3.0 19:19:15 10° SSE 19:22:38 40° E 19:26:02 10° NNE
Cosmos 2360 Rocket 4.3 19:20:14 10° NNE 19:22:44 13° NE 19:25:13 10° ENE
Nadezhda 4 Rocket 4.2 19:25:13 10° SSE 19:31:09 53° E 19:37:12 10° NNE
Cosmos 1606 2.7 19:27:34 10° N 19:31:21 65° E 19:35:07 10° SSE
Cosmos 1242 Rocket 4.1 19:30:36 10° NNW 19:33:54 36° W 19:37:09 10° SSW
Landsat 7 4.0 19:32:38 10° SSE 19:37:17 57° ENE 19:41:57 10° N
SPOT 3 Rocket 3.8 19:33:55 10° SSE 19:38:59 54° ENE 19:44:05 10° N
Cosmos 1825 4.1 19:36:29 10° SW 19:39:53 32° WNW 19:43:18 10° N
ISS -3.3 19:36:34 10° NW 19:39:55 56° NNE 19:42:58 12° ESE
IGS 5A 3.5 19:36:23 10° SSE 19:40:30 67° ENE 19:44:38 10° N
BREEZE-M DEB (TANK) 4.1 19:30:58 10° W 19:43:30 58° NNW 19:47:08 10° ENE
Cosmos 2058 4.0 19:40:36 10° SSW 19:44:38 48° WNW 19:48:44 10° N
Cosmos 1980 Rocket 2.3 19:39:34 10° NNW 19:45:13 83° WSW 19:50:52 10° SSE
MetOp-B 4.4 19:40:14 10° SE 19:45:25 54° ENE 19:50:39 10° N
Cosmos 2369 4.2 19:39:56 10° NNW 19:45:30 61° WSW 19:51:03 10° S
CZ-2C R/B 4.3 19:43:42 10° NNE 19:47:51 35° E 19:51:54 10° SSE
Cosmos 2221 3.2 19:46:03 10° NNW 19:50:16 55° W 19:54:29 10° S
RESURS DK-1 3.0 19:46:16 10° SW 19:50:22 60° WNW 19:54:31 10° NNE
ERBS 4.1 19:48:46 10° WNW 19:51:20 22° SW 19:53:54 10° S
USA 245 4.3 19:47:53 13° SE 19:52:12 41° ENE 19:56:12 10° N
BREEZE-M DEB (TANK) 3.2 19:50:55 10° SW 19:54:15 69° SE 20:05:17 10° ENE
Meteor 2-15 4.5 19:49:05 10° N 19:55:08 64° E 20:00:52 11° SSE
Cosmos 2322 Rocket 3.3 19:50:52 10° N 19:55:49 30° NE 19:59:58 13° ESE
Cosmos 304 Rocket 4.1 19:55:47 10° NNW 20:00:29 52° ENE 20:03:55 18° SE
BREEZE-M DEB (TANK) 3.6 19:57:35 10° WNW 20:00:50 87° NNE 20:09:24 13° ESE
Cosmos 1538 Rocket 3.9 19:55:49 10° SSW 20:01:02 85° ESE 20:06:15 10° NNE
Cosmos 1933 3.7 19:57:52 10° N 20:01:49 48° ENE 20:04:32 18° SSE
Resurs 01 Rocket 1.8 19:58:44 10° S 20:03:09 72° W 20:07:36 10° NNW
Cosmos 2151 2.9 20:01:09 10° S 20:05:21 70° E 20:09:37 10° NNE
ERS-2 3.0 20:02:29 10° N 20:06:03 51° WNW 20:09:34 10° SSW
Cosmos 2098 Rocket 2.9 20:03:41 10° SSW 20:06:42 60° W 20:10:16 10° N
Gbstr 26 Del rocket 3.2 20:06:21 10° NW 20:10:01 53° NNE 20:12:57 17° E
Meteor 2-3 Rocket 3.8 20:04:57 10° S 20:10:29 61° E 20:16:08 10° NNE
CARTOSAT-1 4.0 20:09:29 20° SE 20:12:13 48° ENE 20:16:22 10° N
Meteor 2-15 Rocket 4.4 20:07:12 10° N 20:13:17 70° E 20:18:11 16° SSE
Cosmos 2219 Rocket 4.4 20:14:04 10° N 20:16:46 13° NE 20:19:28 10° ENE
Ariane Rocket 4.3 20:12:57 10° SSW 20:17:38 37° W 20:22:21 10° NNW
SL-16 R/B 2.4 20:18:57 10° NNW 20:24:35 61° ENE 20:28:03 23° SE
Cosmos 1782 3.0 20:24:18 10° N 20:28:16 57° ENE 20:30:02 30° SE
Cosmos 371 Rocket 4.1 20:24:27 10° NNW 20:29:05 47° WSW 20:32:51 15° S
ARIANE 5 R/B 2.8 20:26:52 26° SE 20:29:17 60° ENE 20:33:41 10° N
Cosmos 1271 Rocket 2.7 20:30:51 10° NNW 20:34:52 86° WSW 20:36:55 28° S
SPOT 1/Viking Rocket 3.9 20:31:18 16° S 20:35:28 65° WSW 20:40:40 10° NNW
Cosmos 2195 Rocket 4.5 20:31:30 10° S 20:37:37 85° W 20:43:47 10° N
USA 276 2.1 20:34:31 10° WNW 20:37:40 74° NNE 20:38:32 43° E
BREEZE-M DEB (TANK) 2.8 20:35:24 10° WNW 20:38:39 70° SSW 20:43:14 23° SE
Cosmos 1766 Rocket 3.6 20:37:42 29° SSE 20:39:46 57° E 20:44:05 10° NNE
Cosmos 1151 Rocket 3.1 20:37:33 10° N 20:41:54 65° E 20:43:40 34° SSE
ATLAS 5 CENTAUR R/B 4.4 20:39:42 10° NNW 20:43:08 17° NNE 20:46:55 10° ENE
Cosmos 1328 Rocket 3.8 20:41:46 10° N 20:46:09 54° ENE 20:47:39 36° SE
Cosmos 923 Rocket 4.0 20:42:04 10° SSW 20:47:25 86° WNW 20:52:47 10° NNE
Terra 2.0 20:47:56 33° SE 20:49:52 57° ENE 20:54:32 10° N
ATLAS 3B R/B 3.6 20:45:03 10° NW 20:51:45 45° WSW 20:56:42 19° S
SPOT 5 2.5 20:50:48 36° SSE 20:52:32 84° ENE 20:56:56 10° NNW
USA 267 3.7 20:48:31 10° ENE 20:54:32 37° SE 20:59:02 17° S
Cosmos 1092 Rocket 4.5 20:49:37 10° SSW 20:55:46 60° WNW 21:02:02 10° N
Cosmos 2082 Rocket 4.5 20:51:47 10° WSW 20:56:25 26° NW 21:01:06 10° N
NOSS 2-1 (C) 3.4 21:00:51 41° ENE 21:00:51 41° ENE 21:03:18 10° NE
Cosmos 2056 Rocket 3.7 20:54:48 10° NNW 21:00:08 61° ENE 21:02:09 36° SE
ERS-1 Rocket 3.0 21:00:35 32° S 21:02:56 79° WSW 21:07:59 10° NNW
BREEZE-M DEB (TANK) 3.6 21:01:11 10° WNW 21:03:01 25° N 21:03:12 25° N
SL-27 R/B 2.9 21:06:23 45° E 21:06:23 45° E 21:09:27 10° NNE
Meteor 2-21 4.4 21:02:38 27° S 21:06:14 77° E 21:12:24 10° NNE
NOSS 2-1 (D) 3.1 21:08:18 54° ENE 21:08:18 54° ENE 21:11:01 10° NE
Cosmos 2360 Rocket 2.4 21:02:22 10° NNW 21:07:57 61° ENE 21:10:08 36° SE
Cosmos 2026 Rocket 4.5 21:02:30 10° SSW 21:08:45 60° WNW 21:14:58 10° N
GP-B 4.2 21:09:15 10° NNW 21:13:26 41° W 21:16:14 19° SW
Cosmos 1833 4.3 21:14:09 37° SSE 21:16:09 56° ESE 21:21:48 10° NNE
ISS -2.0 21:13:45 10° W 21:15:56 23° WSW 21:15:56 23° WSW
Spot 2 Rocket 4.5 21:14:48 22° SSW 21:17:39 40° W 21:22:29 10° NNW
Cosmos 2333 Rocket 3.1 21:13:12 10° NNW 21:18:27 38° NE 21:20:38 28° E
Meteor 1-10 Rocket 4.1 21:15:31 10° N 21:21:05 73° ENE 21:22:51 44° SSE
Cosmos 1371 Rocket 4.0 21:16:14 10° NNW 21:21:38 81° WSW 21:23:22 44° S
Cosmos 2112 Rocket 4.3 21:17:49 16° SSW 21:22:05 68° WNW 21:27:21 10° NNE
Cosmos 1812 2.9 21:18:41 10° NNW 21:22:31 66° W 21:23:04 57° SW
Cosmos 1680 Rocket 4.1 21:17:27 10° SW 21:22:36 58° WNW 21:27:48 10° NNE
Cosmos 1500 Rocket 4.0 21:22:35 44° E 21:22:39 44° E 21:26:53 10° NNE
Cosmos 220 Rocket 4.2 21:20:42 10° NNW 21:24:59 62° WSW 21:25:50 50° SSW
Okean 3 Rocket 4.5 21:24:58 24° SW 21:27:22 47° WNW 21:31:45 10° N
USA 234 4.2 21:22:42 11° E 21:28:33 45° NNE 21:34:42 10° NW
Cosmos 2322 4.4 21:23:23 10° NNW 21:28:50 43° ENE 21:30:49 32° ESE
Cosmos 292 Rocket 3.7 21:28:06 10° NNW 21:32:52 70° ENE 21:33:40 57° ESE
Meteor 2-16 Rocket 4.3 21:35:25 40° S 21:37:46 86° E 21:43:53 10° N
Cosmos 2237 Rocket 4.4 21:35:01 10° N 21:38:42 17° NE 21:42:14 10° E
Cosmos 2322 Rocket 2.8 21:34:41 10° NW 21:40:02 46° WSW 21:41:46 35° SSW
Cosmos 1408 Rocket 3.8 21:40:12 48° SW 21:41:11 63° W 21:45:30 10° N
Cosmos 1743 Rocket 3.5 21:42:22 70° ESE 21:42:32 71° E 21:46:58 10° NNE
Cosmos 2285 Rocket 4.4 21:39:34 10° NNW 21:45:43 51° ENE 21:47:43 38° ESE
IRIDIUM 106 4.4 21:42:23 10° N 21:47:35 62° E 21:48:18 56° ESE
Cosmos 2315 Rocket 4.1 21:44:15 10° N 21:50:34 67° E 21:52:17 48° SE
Sich 1 4.0 21:51:49 36° ENE 21:51:49 36° ENE 21:55:15 10° NNE
Cosmos 2084 4.4 21:48:52 16° WSW 21:51:51 44° NW 21:55:53 10° NNE
Cosmos 2266 Rocket 3.9 21:53:30 43° SSW 21:55:41 81° W 22:01:57 10° N
Gbstr 26 Del rocket 4.4 21:53:13 10° WNW 21:55:27 25° WSW 21:55:27 25° WSW
Cosmos 1048 Rocket 4.2 21:59:25 50° E 21:59:25 50° E 22:04:10 10° NNE
Cosmos 2219 Rocket 2.3 21:56:18 10° NNW 22:01:53 65° ENE 22:02:58 53° ESE
BREEZE-M DEB (TANK) 4.5 21:50:10 10° SW 22:05:51 59° SSE 22:10:31 10° E
Cosmos 2228 Rocket 3.0 22:01:46 10° N 22:06:05 84° NNE 22:06:05 84° NNE
SL-16 R/B 3.9 22:04:01 10° NW 22:08:11 21° W 22:09:55 18° SW
COSMOS 2455 2.7 22:09:10 54° SSW 22:10:37 82° ESE 22:16:40 10° NNE
NOSS 3-1 (C) 4.0 22:03:40 10° NW 22:11:15 88° WSW 22:14:30 44° SSE
Cosmos 2333 4.1 22:05:50 10° NNW 22:11:27 77° WSW 22:12:13 65° S
Cosmos 1420 Rocket 4.5 22:07:55 10° NNW 22:13:03 49° WSW 22:13:43 46° SW
COSMOS 2428 2.7 22:10:56 10° NNW 22:16:38 70° ENE 22:17:35 58° ESE
Spot 4 3.7 22:21:45 86° S 22:21:51 89° WSW 22:26:42 10° NNW
USA 229 DEB 3.9 22:18:05 10° NW 22:25:27 77° NE 22:28:16 43° SE
USA 229 3.9 22:18:11 10° NW 22:25:33 76° NE 22:28:23 43° SE
Terra 3.9 22:26:49 16° WSW 22:27:58 17° W 22:31:03 10° NW
ATLAS 5 CENTAUR R/B 2.7 22:23:19 10° NNW 22:28:47 58° NE 22:30:39 42° ESE
COSMOS 2487 4.1 22:31:49 32° NNW 22:31:49 32° NNW 22:33:57 10° N
Cosmos 1452 Rocket 3.5 22:27:26 10° NNW 22:32:38 64° WSW 22:32:49 64° WSW
Cosmos 1707 Rocket 3.8 22:28:28 10° N 22:32:18 64° NNE 22:32:18 64° NNE
ALOS 2 2.8 22:33:57 65° NE 22:33:57 65° NE 22:37:56 10° N
USA 267 3.4 22:31:18 10° NE 22:37:49 72° NW 22:44:20 10° WSW
Nadezhda 1 Rocket 4.5 22:36:56 10° N 22:43:09 49° ENE 22:44:26 43° ESE
SL-08 ROCKET BODY 4.3 22:44:13 67° SSE 22:44:58 76° E 22:51:07 10° N
NOSS 3-1 (A) 4.0 22:38:21 10° NW 22:45:58 86° SW 22:48:48 48° SSE
Cosmos 2360 Rocket 3.8 22:47:21 10° NW 22:51:27 21° W 22:51:53 21° WSW
Cosmos 1110 Rocket 4.0 22:53:24 10° NNW 22:58:40 74° WSW 22:58:40 74° WSW
Cosmos 1980 3.9 22:54:53 10° NNW 23:00:30 61° ENE 23:01:19 55° E
Cosmos 2333 Rocket 3.1 22:57:35 10° NW 23:02:38 35° WSW 23:02:38 35° WSW
Cosmos 1331 Rocket 4.0 22:58:55 10° NNW 23:03:58 72° W 23:03:58 72° W
USA 234 3.1 23:10:02 60° SSE 23:11:18 76° SW 23:17:53 10° NW
Cosmos 1340 Rocket 4.3 23:13:35 30° NE 23:13:35 30° NE 23:15:58 10° NNE
Nimbus 7 Rocket 4.3 23:07:15 10° NNE 23:13:18 90° NNW 23:14:02 71° SSW
NOSS 0 Rocket 3.8 23:09:14 10° NNW 23:15:28 76° WSW 23:16:01 70° SSW
Cosmos 2297 Rocket 2.3 23:17:11 62° ESE 23:17:11 62° ESE 23:22:41 10° NNE
Okean 1-7 4.0 23:15:26 10° N 23:18:54 39° NE 23:18:54 39° NE
Lacrosse 5 2.4 23:21:59 48° ENE 23:21:59 48° ENE 23:25:49 10° NE
Cosmos 2237 Rocket 2.0 23:17:55 10° NNW 23:23:39 85° ENE 23:24:02 78° SE
Cosmos 2084 Rocket 4.1 23:20:52 10° NW 23:24:08 52° NNW 23:24:08 52° NNW
Cosmos 2242 Rocket 4.3 23:21:19 10° N 23:25:08 47° NE 23:25:08 47° NE
Cosmos 1470 Rocket 4.1 23:29:03 56° NNW 23:29:03 56° NNW 23:32:36 10° N
Cosmos 2227 Rocket 2.3 23:28:53 58° ESE 23:28:53 58° ESE 23:34:20 10° NNE
Cosmos 909 Rocket 4.2 23:31:44 56° SE 23:32:28 59° ESE 23:39:48 10° NE
Cosmos 1633 Rocket 4.2 23:33:06 36° WNW 23:33:06 36° WNW 23:36:46 10° N
Cosmos 1933 Rocket 3.9 23:35:34 63° NNE 23:35:34 63° NNE 23:39:22 10° N
Timation 1 Rocket 4.4 23:41:04 58° ESE 23:41:18 58° ESE 23:47:11 10° NE
Meteor 1-11 Rocket 3.8 23:41:19 58° ESE 23:41:35 59° E 23:47:00 10° NNE
Cosmos 2219 Rocket 3.9 23:41:25 10° NW 23:44:40 19° W 23:44:40 19° W
Cosmos 2263 Rocket 4.2 23:46:36 15° ESE 23:47:13 15° E 23:50:18 10° ENE
Cosmos 1269 Rocket 4.1 23:50:05 62° W 23:50:23 63° WNW 23:55:39 10° NNE
NOSS 2-2 (C) 4.4 23:45:13 10° NW 23:50:41 89° SW 23:52:22 54° SE
SL-16 R/B 2.8 23:45:25 10° NNW 23:50:58 52° ENE 23:52:42 38° ESE
Cosmos 1992 Rocket 4.1 23:46:21 10° NNW 23:51:35 64° ENE 23:52:06 60° E
PSLV R/B 3.9 23:47:39 10° N 23:52:12 69° NW 23:52:12 69° NW
Resurs 1-4 Rocket 3.7 23:50:19 10° NE 23:54:28 23° E 23:55:13 22° ESE
